LFMNLFKB

Guest
Details From LFMN - Nice/Cote d'Azur
To LFKB - Bastia Poretta
Flight Number -
Tags generated
Created
Modified
Stats Distance 120 nm / 222 km
Max Altitude 8,300 ft / 2,530 m
Waypoints 3
Social Downloads 3
Likes 0
Share VATSIM

Download

Looking for another format? Having issues loading an existing format? Contact us
Advertisement - Login to hide

Notes

Basic altitude profile: - Ascent Rate: 2500ft/min - Ascent Speed: 250kts - Cruise Altitude: 18000ft - Cruise Speed: 420kts - Descent Rate: 1500ft/min - Descent Speed: 250kts

Route

LFMN NORKA LFKB

ID Type Via Altitude Latitude Longitude Leg Dist Tot Dist Heading (true) Name
O LFMN APT - 0 ft / 0 m 43.65798˚ 7.21536˚ - 0 nm - Nice/Cote d'Azur
NORKA FIX - 8,300 ft / 2,530 m 42.95306˚ 8.79139˚ 80 nm 80 nm 121° / 122° -
O LFKB APT - 0 ft / 0 m 42.55251˚ 9.48371˚ 38 nm 119 nm 128° / 128° Bastia Poretta

Altitude Profile

Advertisement - Login to hide

LFMN

Details ICAO LFMN (NCE)
Name Nice/Cote d'Azur
Region France
Timezone Unknown (UTC+0.0)
Stats Elevation 12 ft / 4 m (AMSL)
Location 43.657981° 7.215362°
Runways 2
Magnetic Variation 2.015° E

METAR

LFMN 122200Z 32010KT CAVOK 08/02 Q1013 NOSIG

Decode

TAF

TAF TAF LFMN 122000Z 1221/1403 32010KT CAVOK BECMG 1309/1311 20008KT TEMPO 1318/1403 24017G30KT

Decode

Departure Runways

ID Width Length Bearing (true) Bearing (mag) Surface Threshold Offset Overrun Length
04L 148 ft / 45 m 8,427 ft / 2,569 m 44.85° 42.83° Asphalt 0 ft / 0 m 131 ft / 40 m
04R 148 ft / 45 m 9,720 ft / 2,963 m 44.60° 42.58° Asphalt 0 ft / 0 m 427 ft / 130 m
22L 148 ft / 45 m 9,720 ft / 2,963 m 224.62° 222.60° Asphalt 0 ft / 0 m 525 ft / 160 m
22R 148 ft / 45 m 8,427 ft / 2,569 m 224.87° 222.85° Asphalt 0 ft / 0 m 492 ft / 150 m

LFKB

Details ICAO LFKB (BIA)
Name Bastia Poretta
Region France
Timezone Europe/Paris (UTC+1.0)
Stats Elevation 25 ft / 8 m (AMSL)
Location 42.552508° 9.483709°
Runways 1
Magnetic Variation 2.484° E

METAR

LFKB 122200Z AUTO 24008KT 9999 BKN096 BKN110 OVC200 11/06 Q1015 NOSIG

Decode

TAF

TAF LFKB 122000Z 1221/1321 VRB05KT 9999 SCT030 BKN070 OVC110 BECMG 1301/1303 23010KT TX15/1313Z TN08/1304Z

Decode

Destination Runways

ID Width Length Bearing (true) Bearing (mag) Surface Threshold Offset Overrun Length
16 148 ft / 45 m 8,273 ft / 2,522 m 162.83° 160.35° Concrete 0 ft / 0 m 131 ft / 40 m
34 148 ft / 45 m 8,273 ft / 2,522 m 342.84° 340.36° Concrete 0 ft / 0 m 0 ft / 0 m

Approach Navaids

Runway Type Ident Frequency Range Bearing (true) Bearing (mag) Slope Elevation
34 Localiser BP 111.35 MHz 27 nm / 50 km 342.81° 340.33° - 25 ft / 8 m (AMSL)
34 Glidescope BP 111.35 MHz 27 nm / 50 km 342.81° 340.33° 3.00° 25 ft / 8 m (AMSL)
34 DME BP 111.35 MHz 18 nm / 33 km - - - 69 ft / 21 m (AMSL)

Popular Alternatives